* Astronomy

Members Login
Username 
 
Password 
    Remember Me  
Post Info TOPIC: Chang Zheng-3B rocket body re-entry


L

Posts: 131433
Date:
RE: Chang Zheng-3B rocket body re-entry
Permalink  
 


Update:
The Chang Zheng-3B rocket re-entered the Earths atmosphere on the 7th February, 2012 @ 03:50 GMT  ± 1 minute.

Inclination: 26.00°
Revolution Number: 524
Predicted Location:  5.6°N, 305.2°E



__________________


L

Posts: 131433
Date:
Permalink  
 

Update:
The Chang Zheng-3B rocket body is predicted to re-enter the Earths atmosphere on the 7th February, 2012 @ 05:41 GMT  ± 7 hours.

CZ-3B RB
1 37805U 11047B   12037.76986128  .99999999 -84891-5  25009-2 0  1411
2 37805 025.9941 129.0483 1004013 011.7989 070.1979 14.20440590  5104

Period:       119.44 minutes
Inclination: 26.00°
Apogee:     3208 km
Perigee:     104 km 
Revolution Number: 525
Predicted Location:  25.4°N, 341.3°E



__________________


L

Posts: 131433
Date:
Permalink  
 

Update:
The Chang Zheng-3B rocket body is predicted to re-enter the Earths atmosphere on the 7th February, 2012 @ 01:31 GMT  ± 16 hours.

CZ-3B RB
1 37805U 11047B   12037.40719392  .85254863 -10043-4  22685-2 0  1355
2 37805 026.0533 131.1404 1324886 007.7720 067.5587 13.44780165  5050

Period:       128.63 minutes
Inclination: 26.15°
Apogee:     4028 km
Perigee:     97 km 
Revolution Number: 522
Predicted Location:  21°S, 276.7°E



__________________


L

Posts: 131433
Date:
Permalink  
 

Update:
The Chang Zheng-3B rocket body is predicted to re-enter the Earths atmosphere on the 7th February, 2012 @ 01:32 GMT  ± 48 hours.

CZ-3B RB
1 37805U 11047B   12035.24765274  .29733022 -11299-4  15295-2 0  1209
2 37805 026.1104 140.5096 2401135 351.3022 066.1238 11.01477887  4796

Period:       140.67 minutes
Inclination: 26.15°
Apogee:     5059 km
Perigee:     104 km 
Revolution Number: 524
Predicted Location:  20.9°N, 19.3°E



__________________


L

Posts: 131433
Date:
Permalink  
 

A Chang Zheng-3B rocket body that was launched on the 17th September, 2011, from the Xichang Satellite Launch site, for the Zhongxing-1A satellite mission is predicted to re-enter the Earths atmosphere on the 6th February, 2012 @ 19:06 GMT  ± 72 hours.

CZ-3B RB
1 37805U 11047B   12034.68618083  .29411355 -10697-4  17717-2 0  1160
2 37805 026.1241 142.4722 2558169 347.9964 033.3584 10.67007974  4732

Period:       140.67 minutes
Inclination: 26.15°
Apogee:     5059 km
Perigee:     104 km 
Revolution Number: 516
Predicted Location:  19.2°N, 111.2°E



__________________
Page 1 of 1  sorted by
 
Quick Reply

Please log in to post quick replies.



Create your own FREE Forum
Report Abuse
Powered by ActiveBoard